Theta_e
312 311 311 312 313 313 314 314 315 315 316 315 315 316 315 315 316 314 314 316 317 318 320 320 326 326 326 326 326 327 328 329 341 348 341 342 343 346 345 343 343 341 343 349
313 312 313 315 315 315 314 313 312 314 316 315 314 315 315 317 317 316 315 315 317 319 319 319 325 325 326 328 327 327 330 331 328 350 346 342 340 340 340 337 335 337 338 340
312 314 316 316 315 316 314 313 313 314 315 314 313 314 314 316 316 316 315 315 316 316 317 318 322 322 323 324 325 324 323 326 330 336 349 347 345 346 347 344 343 342 338 337
313 314 315 315 315 315 314 314 314 314 314 314 314 314 313 316 315 315 315 315 314 317 317 316 320 321 324 324 322 322 323 323 325 331 334 343 344 343 346 347 345 345 344 342
314 314 314 314 315 315 315 314 314 314 313 313 314 314 314 315 315 314 315 316 315 314 314 316 317 321 320 321 323 324 324 324 322 323 328 333 335 335 336 336 338 338 342 337
313 314 314 315 319 318 319 318 312 313 312 312 313 314 315 315 315 315 316 316 316 314 315 315 317 319 319 319 319 320 324 323 326 327 325 326 330 333 330 330 332 336 338 334
314 315 317 319 320 319 319 320 322 313 312 314 313 315 315 316 318 318 317 317 314 316 315 316 316 315 318 318 318 318 319 320 324 325 326 329 327 328 329 328 326 327 325 330
319 319 318 320 320 320 320 321 323 324 317 317 318 317 316 318 319 318 317 315 315 312 314 314 316 315 317 318 318 318 320 321 324 324 325 326 327 328 330 329 327 326 323 325
317 318 317 318 318 317 320 323 320 323 321 323 319 318 318 318 319 319 317 316 314 311 312 314 314 315 317 318 319 320 322 322 324 324 324 325 326 327 327 327 327 327 331 330
317 318 317 317 318 317 318 317 320 322 325 325 320 319 317 319 319 317 317 315 314 315 313 312 313 314 317 319 319 319 319 320 320 320 322 324 326 325 327 328 328 328 329 330
317 319 318 316 316 315 314 319 320 320 322 325 324 317 318 318 317 318 317 316 314 314 313 312 312 314 316 317 318 319 319 320 320 320 320 320 321 321 324 329 330 330 332 334
318 318 320 319 315 314 316 317 318 320 323 322 322 319 317 318 317 316 316 316 315 314 312 311 311 314 316 317 317 319 320 319 319 320 322 320 320 320 321 321 321 321 323 327
316 314 313 312 311 315 315 316 315 316 318 320 322 316 316 318 318 316 315 316 316 316 315 314 314 314 313 316 317 317 318 317 316 317 318 320 318 317 317 321 321 321 322 324
312 312 312 312 311 311 317 318 315 316 316 315 318 317 316 318 317 316 315 315 315 315 314 314 315 316 314 316 316 317 316 315 316 316 316 316 317 318 318 318 317 316 316 317
311 313 313 314 314 312 312 312 311 314 315 317 315 318 316 314 316 315 315 315 315 315 314 314 316 314 315 315 316 317 316 315 315 315 315 315 316 316 316 316 316 315 316 316
311 313 313 314 313 313 314 314 313 314 315 315 317 316 315 315 314 315 315 318 315 315 316 318 319 318 316 318 317 316 316 316 316 316 316 315 315 315 314 315 315 315 315 315
310 311 312 313 313 313 313 312 316 313 314 316 317 315 316 316 316 316 315 318 317 317 317 317 316 316 317 316 316 315 315 314 314 315 315 315 314 314 314 315 314 314 315 315
310 311 311 313 313 316 312 316 317 320 318 318 318 319 318 318 316 315 316 315 316 315 315 314 314 313 314 314 314 314 314 314 313 313 313 313 313 313 313 312 313 314 314 315
309 311 312 310 310 315 314 318 319 318 318 317 317 315 314 313 313 313 317 316 315 314 314 314 313 312 312 313 313 313 314 313 313 312 312 312 312 311 311 311 311 310 310 312
315 313 310 311 313 312 318 317 315 316 317 314 315 314 313 312 313 311 310 310 310 310 311 310 310 311 311 311 312 314 313 312 311 311 311 310 310 311 312 311 311 311 313 315
317 315 316 315 314 315 316 316 314 317 318 313 311 311 311 313 312 310 308 308 308 308 308 308 307 307 309 310 312 311 311 311 311 311 311 311 311 310 310 310 310 310 310 313
317 318 318 317 319 320 313 313 314 313 311 310 309 308 309 309 308 308 308 308 307 308 307 307 306 306 307 308 309 309 309 309 309 309 310 309 309 310 311 312 311 311 312 314
317 316 317 317 313 314 309 310 310 308 308 308 308 307 307 307 307 307 308 306 306 306 305 305 306 306 306 307 307 308 308 308 309 310 309 309 310 311 312 312 314 314 315 318
313 311 312 310 313 309 307 308 307 308 306 307 307 307 307 305 305 304 304 304 305 304 304 304 305 306 307 308 308 309 309 309 310 310 310 310 311 312 313 314 315 316 318 320
311 311 309 309 309 306 308 306 306 305 306 307 307 307 305 304 304 304 302 304 303 302 303 304 305 305 306 306 306 307 308 308 310 310 311 312 314 315 315 316 318 319 319 320
310 310 310 309 307 306 306 305 305 306 307 307 306 305 302 303 302 303 302 302 302 302 302 302 303 303 304 306 306 306 306 307 309 310 311 312 314 316 317 317 319 319 320 321
Wind_Speed
8 4 6 13 13 15 15 14 16 17 13 7 10 10 10 11 6 7 7 9 9 8 6 4 25 26 23 18 12 7 4 7 11 22 24 20 21 26 27 30 27 22 16 24
6 10 14 15 17 14 13 13 16 14 11 13 15 16 12 7 4 4 6 7 9 6 6 8 22 24 22 19 15 11 6 4 8 16 24 23 23 20 24 27 27 32 26 16
8 9 16 17 13 13 11 8 10 12 10 15 15 14 11 7 4 5 10 8 9 12 11 10 16 25 24 20 14 10 8 8 8 9 16 18 17 20 20 27 25 29 25 26
9 11 15 15 12 14 16 7 12 16 13 6 6 12 9 7 8 10 16 19 10 10 9 9 14 14 24 20 15 10 9 9 12 11 14 18 23 21 21 13 16 21 19 15
12 12 14 15 15 17 15 10 11 15 7 4 8 6 8 7 12 12 12 20 18 11 10 10 14 20 19 17 15 14 12 7 9 15 17 17 17 17 15 14 18 25 19 15
13 14 13 11 13 10 18 21 8 6 2 4 13 8 14 10 8 8 17 11 16 11 11 12 18 24 23 18 13 11 10 8 10 12 14 18 16 14 15 11 8 10 17 30
18 18 5 10 5 10 12 9 6 7 4 10 16 11 11 11 15 13 23 24 10 15 12 11 11 10 19 19 17 15 17 14 13 13 13 14 13 11 10 10 14 17 16 11
6 7 8 4 4 4 1 6 4 7 3 6 14 15 16 7 10 10 13 7 13 11 10 11 14 12 18 21 20 24 22 17 16 12 11 12 12 10 10 8 11 18 14 15
5 8 12 4 7 3 5 5 12 9 5 6 6 18 8 9 13 4 14 4 6 8 8 9 9 13 21 25 25 24 19 18 13 14 15 13 11 12 13 12 14 18 15 15
7 6 3 7 5 8 4 3 2 2 4 4 4 8 6 8 6 15 8 9 8 7 9 8 7 7 11 19 21 23 20 18 18 17 12 10 14 14 14 16 18 16 15 16
3 3 2 5 4 6 1 2 2 3 2 4 2 4 4 5 7 4 18 10 7 9 9 7 5 9 12 15 19 24 26 24 22 22 24 17 15 10 10 11 11 12 13 16
3 4 2 6 10 12 6 3 6 2 3 4 2 7 8 3 3 7 11 10 16 4 8 8 8 12 12 11 13 15 20 25 21 15 21 22 21 15 13 12 14 16 19 20
6 2 4 7 4 2 2 3 4 4 4 5 5 4 4 7 5 3 4 8 12 13 11 8 7 7 9 16 13 12 12 11 9 7 2 8 8 8 10 11 12 14 17 21
6 2 5 6 10 8 2 8 8 7 3 5 8 12 19 11 7 7 9 10 15 15 6 3 7 13 7 15 15 13 14 13 10 9 8 8 8 8 8 12 16 19 24 28
5 5 7 10 14 15 15 17 17 11 15 8 15 14 15 13 10 12 15 15 10 11 10 5 2 10 15 8 18 22 21 20 19 17 13 9 7 8 10 13 17 22 26 31
5 4 6 8 10 15 18 16 16 15 17 11 9 11 10 17 6 12 10 13 8 10 4 8 8 9 14 14 2 7 5 4 2 2 6 10 13 15 17 19 21 24 30 33
4 3 4 6 9 15 9 7 10 5 4 2 4 5 11 12 7 8 5 7 7 9 11 8 6 7 15 15 14 8 7 9 9 10 12 15 17 19 21 22 24 28 32 33
5 5 2 4 6 4 6 12 7 8 8 9 5 11 2 6 9 8 4 6 5 4 4 8 10 5 8 15 16 18 9 10 12 14 16 17 18 20 23 27 30 27 29 33
9 3 2 1 3 10 8 7 10 4 3 11 14 14 11 10 13 9 6 5 4 7 8 8 16 20 23 23 24 22 16 15 18 20 20 20 23 26 28 30 32 33 33 36
6 7 4 2 3 3 7 13 14 7 5 17 13 13 14 10 9 6 13 14 10 8 11 14 21 23 24 27 31 27 22 22 20 20 24 27 26 26 26 26 27 27 26 30
2 2 5 5 5 6 12 12 11 3 6 16 17 15 16 10 8 15 17 15 13 14 10 17 24 25 28 27 26 22 19 17 20 25 26 24 25 29 33 34 33 32 31 31
4 3 2 4 4 3 11 6 6 6 7 12 13 14 17 17 18 19 20 19 19 17 18 25 26 28 31 29 26 20 19 23 26 29 25 25 27 28 28 28 28 30 28 27
3 4 3 3 4 4 6 6 4 7 12 12 17 17 17 18 19 20 21 21 23 20 19 26 23 23 25 27 29 24 25 26 25 22 22 26 26 27 28 28 25 24 23 22
3 10 3 6 3 9 15 7 12 13 17 19 19 20 16 20 22 26 21 22 15 18 20 25 25 18 20 24 21 20 19 21 23 22 23 25 26 27 26 26 26 23 22 19
2 4 6 6 8 17 5 14 15 19 20 22 22 15 21 26 22 22 18 20 17 17 21 24 16 16 22 26 27 28 25 23 24 23 26 25 23 23 23 25 24 23 26 25
2 1 1 5 13 9 15 16 22 22 22 24 20 20 23 21 21 20 18 18 17 16 22 20 21 23 26 24 26 28 27 24 23 20 23 24 22 20 20 20 19 29 35 34
Wind_Direction
277 235 232 241 233 235 246 263 274 280 289 319 297 289 303 215 203 252 265 266 211 190 160 141 154 145 138 145 157 166 211 258 250 224 208 196 208 223 217 211 200 214 217 221
267 244 246 252 259 257 262 272 287 293 315 313 304 293 280 272 231 217 261 265 212 191 171 136 142 145 143 145 149 171 188 257 262 233 224 208 201 227 241 229 220 223 214 227
253 265 280 278 276 288 268 257 288 281 282 281 287 288 285 258 206 291 282 242 231 194 183 162 155 159 157 156 165 178 199 229 247 241 223 219 189 205 225 229 223 225 214 222
252 269 279 287 296 291 287 287 295 288 288 259 273 276 279 288 238 232 243 253 237 208 187 180 169 148 154 161 161 167 192 229 248 243 229 227 219 201 209 214 235 230 209 219
271 288 292 297 296 300 285 249 260 274 277 347 302 294 279 258 275 270 272 244 237 202 177 151 126 141 144 148 148 168 179 201 244 241 240 240 221 216 210 219 257 245 233 239
261 271 274 289 331 353 329 339 270 264 212 275 261 256 279 278 265 307 291 246 218 153 135 135 136 138 140 139 157 167 172 220 234 244 244 245 249 219 204 207 221 271 250 232
238 241 294 346 333 320 352 350 330 280 258 246 254 255 240 251 303 301 296 266 177 138 131 131 133 140 163 175 177 191 217 216 221 242 249 251 251 253 256 247 222 240 271 272
297 314 280 155 200 180 290 155 184 276 247 285 318 250 252 211 240 290 297 122 124 125 135 140 158 171 176 179 193 200 208 204 210 223 243 253 254 260 258 265 277 268 247 261
355 293 323 241 107 230 216 167 206 239 260 282 278 288 302 242 262 289 338 72 105 128 130 135 126 142 176 186 196 195 189 197 207 221 229 227 243 254 257 258 252 260 272 271
338 322 304 345 172 229 213 32 339 117 228 236 238 282 274 23 341 286 291 274 127 117 115 126 132 143 157 160 165 177 188 207 229 243 239 239 244 251 255 259 257 258 269 272
126 98 336 345 237 294 257 27 350 301 189 251 264 250 109 31 17 304 276 329 186 154 148 142 162 202 214 205 196 193 199 201 215 227 234 237 243 257 264 263 263 279 284 282
77 142 244 231 281 50 47 152 147 153 335 294 103 253 340 341 3 330 356 326 341 152 158 177 201 187 181 192 182 191 210 219 221 218 231 230 232 235 257 268 276 279 284 286
162 260 329 325 290 360 122 219 175 175 177 234 253 275 288 284 254 273 335 341 301 315 2 0 326 195 199 187 184 183 182 182 206 226 275 217 239 247 250 265 284 296 297 291
110 201 215 247 258 268 223 235 217 166 162 221 230 267 274 255 209 235 254 225 248 283 273 272 10 341 201 183 184 199 177 182 196 223 239 250 256 245 266 284 290 294 294 291
145 220 265 288 298 297 294 289 286 240 228 225 262 242 245 229 225 232 221 229 220 233 266 280 332 15 314 296 224 207 211 219 224 214 208 213 233 260 274 274 283 288 289 289
333 294 303 293 313 300 290 290 283 278 280 289 336 320 15 345 327 22 12 336 285 276 330 40 23 32 344 320 347 38 39 45 58 249 245 253 263 271 273 276 279 281 283 284
292 319 338 283 311 323 308 304 321 268 320 135 290 279 360 337 352 321 4 62 29 351 345 357 358 171 213 258 294 299 274 280 271 264 266 263 264 265 272 278 277 275 275 278
246 278 272 290 327 247 254 15 24 8 334 38 309 12 268 273 278 262 77 74 34 292 296 307 301 272 272 286 287 299 248 252 259 262 261 261 264 268 266 263 265 272 268 265
196 162 28 226 266 286 295 16 9 10 10 30 357 342 339 345 331 334 117 40 307 279 279 257 284 290 283 276 286 284 253 245 246 248 253 258 259 258 257 256 259 262 269 269
57 113 133 292 269 258 33 1 339 287 248 360 342 328 332 343 312 289 341 318 300 273 285 297 300 298 293 289 289 271 261 250 245 252 257 259 261 263 261 257 261 265 266 269
45 42 215 215 242 278 8 352 321 19 317 346 344 343 330 315 296 305 303 297 306 301 300 314 304 297 293 287 272 262 256 246 258 259 256 258 260 261 261 260 261 261 255 265
166 209 210 233 236 286 6 18 359 270 306 322 326 316 307 303 305 305 299 299 301 293 290 289 286 278 272 266 265 267 257 262 264 259 252 256 258 257 257 254 250 246 247 253
91 169 214 233 260 86 13 295 336 329 326 320 309 304 294 296 300 300 300 299 293 285 291 289 278 277 279 273 264 255 260 264 255 245 248 258 258 256 254 250 250 245 250 248
331 33 54 350 342 360 333 346 333 329 318 307 305 304 302 309 305 298 289 292 284 289 289 287 278 273 276 273 268 268 265 271 269 257 258 258 256 254 249 248 246 240 242 242
9 357 337 267 278 337 283 321 315 311 306 305 305 311 301 299 297 289 296 289 287 289 283 278 271 279 274 272 271 268 269 268 264 260 258 256 256 257 247 243 242 236 240 240
323 359 281 278 309 291 292 302 306 302 308 306 323 319 312 294 298 287 293 291 290 285 284 280 274 270 272 271 269 270 267 263 262 258 261 255 253 257 242 238 240 244 247 246